User: anonymous   Login
Location: Caltech
(34.1382°N, 118.1253°W)
Time: 09:02:40
(UTC-07:00)
Language:

RESURS DK-1 - Orbit

View from above orbital plane
View from above orbital plane
View from above satellite
View from above satellite

Ground track
Ground track

The orbit data is extracted from the following two-line orbital elements,

1 29228U 06021A   15087.49457270  .00001161  00000-0  97403-4 0  9997
2 29228 069.9397 002.1524 0004545 186.8143 297.0599 15.01344826486239
Epoch (UTC): 28 March 2015 11:52:11
Eccentricity: 0.0004545
inclination: 69.9397°
perigee height: 559 km
apogee height: 566 km
right ascension of ascending node: 2.1524°
argument of perigee: 186.8143°
revolutions per day: 15.01344826
mean anomaly at epoch: 297.0599°
orbit number at epoch: 48623

The dashed part of the orbit path shows where the satellite is in the earth's shadow,  

DLR